Regional Weather Roundup
Issued by NWS

Home | Current Version | Previous Version | Graphics & Text | Print | Product List | Glossary Off
Versions: 1 2 3 4 5 6 7 8 9 10 11 12 13 14 15 16 17 18 19 20 21 22 23 24 25 26 27 28 29 30 31 32 33 34 35 36 37 38 39 40 41 42 43 44 45 46 47 48 49 50

000
ASUS43 KTOP 211108
RWRKS

WEATHER ROUNDUP FOR KANSAS
NATIONAL WEATHER SERVICE GOODLAND KS
600 AM CDT THU AUG 21 2014

NOTE:  "FAIR" INDICATES FEW OR NO CLOUDS BELOW 12,000 FEET WITH NO
SIGNIFICANT WEATHER AND/OR OBSTRUCTIONS TO VISIBILITY.

KSZ001>006-013>018-027>032-041>047-211200-
NORTHWEST KANSAS

CITY           SKY/WX    TMP DP  RH WIND       PRES   REMARKS
GOODLAND       CLEAR     64  58  80 NW8       29.91S
HAYS           MOCLDY    79  59  50 S21       29.80S
HILL CITY      LGT RAIN  78  66  66 SW10G16   29.81R
RUSSELL        PTCLDY    78  59  51 S16G24    29.79R
$$

KSZ061>065-074>080-084>089-211200-
SOUTHWEST KANSAS

CITY           SKY/WX    TMP DP  RH WIND       PRES   REMARKS
DODGE CITY     CLEAR     77  63  61 S14       29.86R
ELKHART          N/A     72  61  68 S12         N/A
GARDEN CITY    PTCLDY    74  63  68 S10       29.86R
GREAT BEND     PTCLDY    77  59  53 S16       29.83S
LIBERAL        CLEAR     77  61  57 S17       29.91R
PRATT          CLEAR     75  59  57 S18       29.87S
$$

KSZ066>073-081>083-090>101-211200-
SOUTHEAST KANSAS

CITY           SKY/WX    TMP DP  RH WIND       PRES   REMARKS
CHANUTE        CLEAR     77  69  76 S14       29.93R
COFFEYVILLE    CLEAR     78  70  76 S10       29.93S
HUTCHINSON     CLEAR     77  65  66 S14       29.87R
MEDICINE LODGE   N/A     75  64  68 SE9       29.87R
NEWTON         CLEAR     77  63  61 S20G29    29.91S
PARSONS        CLEAR     77  69  76 S6        29.95R
WICHITA INTL   PTCLDY    76  67  73 S15       29.88S
WICHITA JABRA  CLEAR     77  68  73 S17G28    29.89R
WICHITA MCCONL CLEAR     76  71  83 S17       29.89S
WINFIELD       CLEAR     78  69  73 S16       29.91R
$$

KSZ007>012-019>026-033>040-048>060-102>105-211200-
NORTHEAST KANSAS

CITY           SKY/WX    TMP DP  RH WIND       PRES   REMARKS
CONCORDIA      PTCLDY    77  66  68 S20G28    29.79R
EMPORIA        CLEAR     75  69  81 S17       29.88S
LAWRENCE       PTCLDY    81  69  67 S14G22    29.87R
MANHATTAN      CLEAR     80  67  64 S16G26    29.83R
MARYSVILLE     MOCLDY    79  68  69 S14       29.81S
OLATHE IND     PTCLDY    77  69  76 S12       29.91R
OLATHE EXE     CLEAR     76  69  79 S12       29.90R
SALINA         PTCLDY    79  65  62 S16G23    29.82R
TOPEKA BILLARD CLEAR     80  71  74 S14       29.86R
TOPEKA FORBES  CLEAR     78  69  73 S16       29.87R
$$



USA.gov is the U.S. government's official web portal to all federal, state and local government web resources and services.